Location: Czekan�w
(50.3488°N, 18.7344°E)
Time: 00:37:45
(UTC+00:00)

BREEZE M DEB (TANK) - Pass Details

Date: 17 February 2020
Orbit: 315 x 13667 km, 49.6° (Epoch: 04 April)

Event Time Altitude Azimuth Distance (km) Brightness Sun altitude
Exits shadow 04:03:45 47° 263° (W) 693 2.8 -18.2°
Maximum altitude 04:04:39 81° 184° (S) 601 2.9 -18.0°
Drops below altitude 10° 04:11:34 10° 98° (E) 3,590 8.2 -16.9°
Sets 04:17:09 0° 98° (E) 6,057 9.9 -16.0°
